This is the latest recevied weather packets stored in our database for station/object N9DMT-13. If no packets are shown the sender has not sent any weather packets the latest 10 day(s).
| Time | Temp. | Humidity | Pressure | Rain* | Wind** | Luminosity | Snow |
|---|---|---|---|---|---|---|---|
| 1777447472 | 9.44° C | 64% | 982.5 hPa | 0 mm | - | - | - |
| 1777447174 | 10° C | 64% | 982.3 hPa | 0 mm | - | - | - |
| 1777446871 | 10° C | 64% | 982.3 hPa | 0 mm | - | - | - |
| 1777446570 | 10° C | 62% | 982.4 hPa | 0 mm | - | - | - |
| 1777446270 | 10° C | 62% | 982.3 hPa | 0 mm | - | - | - |
| 1777445969 | 10° C | 61% | 982.2 hPa | 0 mm | - | - | - |
| 1777445668 | 10° C | 58% | 982.2 hPa | 0 mm | - | - | - |
| 1777445367 | 10° C | 58% | 982.2 hPa | 0 mm | - | - | - |
| 1777445067 | 10° C | 58% | 982.4 hPa | 0 mm | - | - | - |
| 1777444766 | 10.56° C | 58% | 982.3 hPa | 0 mm | - | - | - |
| 1777444466 | 10.56° C | 57% | 982.2 hPa | 0 mm | - | - | - |
| 1777444165 | 10.56° C | 57% | 982.1 hPa | 0 mm | - | - | - |
| 1777443864 | 10.56° C | 57% | 982.2 hPa | 0 mm | - | - | - |
| 1777443563 | 10.56° C | 55% | 982 hPa | 0 mm | - | - | - |
| 1777443263 | 10.56° C | 57% | 982.1 hPa | 0 mm | - | - | - |
| 1777442962 | 10.56° C | 56% | 981.9 hPa | 0 mm | - | - | - |
| 1777442661 | 10° C | 56% | 981.9 hPa | 0 mm | - | - | - |
| 1777442361 | 10.56° C | 59% | 981.9 hPa | 0 mm | - | - | - |
| 1777442060 | 10.56° C | 59% | 982.1 hPa | 0 mm | - | - | - |
| 1777441760 | 10.56° C | 58% | 982.4 hPa | 0 mm | - | - | - |
| 1777441459 | 10.56° C | 58% | 982.3 hPa | 0 mm | - | - | - |
| 1777441158 | 10.56° C | 58% | 982.1 hPa | 0 mm | - | - | - |
| 1777440857 | 10.56° C | 59% | 982.2 hPa | 0 mm | - | - | - |
| 1777440556 | 10.56° C | 60% | 982.2 hPa | 0 mm | - | - | - |
| 1777440255 | 10.56° C | 60% | 982 hPa | 0 mm | - | - | - |
* Rain latest hour (hover to see other rain measurements)
** Current wind speed in m/s (hover to see current wind gust speed)